Regional Weather Roundup
Issued by NWS Upton, NY

Current Version | Previous Version | Text Only | Print | Product List | Glossary On
Versions: 1 2 3 4 5 6 7 8 9 10 11 12 13 14 15 16 17 18 19 20 21 22 23 24 25 26 27
000
ASUS41 KOKX 161005
RWROKX
REGIONAL WEATHER ROUNDUP
NATIONAL WEATHER SERVICE NEW YORK NY
600 AM EDT WED APR 16 2014

NOTE: "FAIR" INDICATES FEW OR NO CLOUDS BELOW 12,000 FEET WITH NO
SIGNIFICANT WEATHER AND/OR OBSTRUCTIONS TO VISIBILITY.

NYZ071-072-176-178-NJZ106-104-161100-
NEW YORK CITY METRO AREA


CITY           SKY/WX    TMP DP  RH WIND       PRES   REMARKS
CENTRAL PARK   PTCLDY    32  17  54 VRB5G17   30.16R WCI  27
LAGUARDIA APRT PTCLDY    33  18  53 NW18G26   30.13R WCI  22
KENNEDY INTL   PTCLDY    33  19  56 NW21G26   30.13R WCI  21
NEWARK/LIBERTY PTCLDY    31  18  58 NW21G29   30.15R WCI  18
TETERBORO      CLEAR     33  17  51 N18G29    30.14R WCI  22
$$

NYZ177-179-078>081-161100-
LONG ISLAND NEW YORK

CITY           SKY/WX    TMP DP  RH WIND       PRES   REMARKS
FARMINGDALE    PTCLDY    32  19  58 NW15G29   30.11R WCI  22
ISLIP          CLOUDY    32  21  64 NW17G29   30.07R WCI  21
SHIRLEY        CLOUDY    31  20  63 N17G29    30.11R WCI  19
WESTHAMPTON    CLOUDY    32  20  61 NW21G33   30.09R WCI  20
MONTAUK POINT    N/A     35  25  66 NW18G29   30.04R WCI  24
$$

NYZ052-065-067-161100-
HUDSON VALLEY

CITY           SKY/WX    TMP DP  RH WIND       PRES   REMARKS
WHITE PLAINS   PTCLDY    29  16  58 NW16G29   30.10R WCI  17
NEWBURGH       CLEAR     27  18  69 N12G25    30.13R WCI  16
MONTGOMERY     PTCLDY    28  15  58 N9        30.14R WCI  19
POUGHKEEPSIE   PTCLDY    30  15  53 NW12      30.13R WCI  20
ALBANY         MOCLDY    27  16  63 NW15      30.15R WCI  15
$$

NJZ001-105-106-008-010-013-015-019>022-104-161100-
NEW JERSEY

CITY           SKY/WX    TMP DP  RH WIND       PRES   REMARKS
NEWARK/LIBERTY PTCLDY    31  18  58 NW21G29   30.15R WCI  18
TETERBORO      CLEAR     33  17  51 N18G29    30.14R WCI  22
CALDWELL       MOCLDY    30  17  58 N15G23    30.16R WCI  19
MORRISTOWN     MOCLDY    32  16  51 NW10G21   30.17R WCI  24
SOMERVILLE     NOT AVBL
LINDEN         FAIR      32  19  56 N13       30.17R WCI  23
SUSSEX         MOCLDY    30  16  56 NW15G26   30.17R WCI  19
ANDOVER          N/A     27  16  63 N10G20    30.16R WCI  17
TRENTON        CLEAR     31  14  49 N15G31    30.18R WCI  20
MILLVILLE      CLEAR     31  17  56 NW12G22   30.20R WCI  22
ATLANTIC CITY  CLEAR     31  21  66 NW18G28   30.17R WCI  19
WRIGHTSTOWN    CLEAR     30  18  60 N14G23    30.16R WCI  19
TOMS RIVER     CLEAR     30  23  74 N7        30.16R WCI  23
BELMAR         CLEAR     30  18  59 NW18G24   30.14R WCI  18
$$

PAZ047>061-062-071-161100-
EASTERN PENNSYLVANIA

CITY           SKY/WX    TMP DP  RH WIND       PRES   REMARKS
PHILADELPHIA   PTCLDY    32  11  41 NW20G31   30.23R WCI  20
ALLENTOWN      CLEAR     27  12  53 NW14G20   30.20R WCI  16
SCRANTON       CLEAR     23  12  62 NW13G23   30.19R WCI  11
$$

CTZ002-004>006-009-010-012-RIZ004-006-007-MAZ004-011-015-161100-
SOUTHERN NEW ENGLAND
 IN CT

CITY           SKY/WX    TMP DP  RH WIND       PRES   REMARKS
BRADLEY INTL   CLOUDY    31  19  61 N15G35    30.06R WCI  20
HARTFORD       CLOUDY    32  20  61 NW20G30   30.08R WCI  20
DANBURY        MOCLDY    28  19  69 NW13G20   30.11R WCI  17
WTRBRY/OXFORD  CLEAR     28  12  50 N16G31    30.08R WCI  17
BRIDGEPORT     CLOUDY    32  20  61 NW15G30   30.10R WCI  22
MERIDEN        CLOUDY    31  19  61 N15G23    30.08R WCI  20
NEW HAVEN      CLOUDY    33  19  56 NW15G26   30.08R WCI  23
CHESTER        FAIR      32  27  80 NW16G23   30.04R WCI  21
GROTON         CLOUDY    33  25  72 NW14G23   30.03R WCI  23
WILLIMANTIC    CLOUDY    32  23  69 NW10G18   30.03R WCI  24

 IN RI

CITY           SKY/WX    TMP DP  RH WIND       PRES   REMARKS
PROVIDENCE     CLOUDY    34  26  72 NW12G24   29.98R WCI  25
BLOCK ISLAND   CLOUDY    34  25  69 NW14G23   30.00R WCI  24
WESTERLY       CLOUDY    32  26  78 NW9       30.02R WCI  24

 IN MA

CITY           SKY/WX    TMP DP  RH WIND       PRES   REMARKS
BOSTON         CLOUDY    35  29  78 NW12G21   29.94R WCI  27
WORCESTER      CLOUDY    27  18  69 NW21G32   29.95R WCI  13
WESTFIELD      CLOUDY    31  16  54 N18G29    30.06R WCI  19
PROVINCETOWN   CLOUDY    36  34  93 MISG      29.91S
NANTUCKET      RAIN      39  36  89 N20G26    29.90R FOG     WCI  29
$$

ANZ330-335-338-340-345-350-353-355-161100-
COASTAL MARINE OBSERVATIONS


STATION/POSITION TIME  SKY/WX   TEMP    WIND        PRES    VSBY  WAVE
                                AIR SEA DIR/SP/G                  HT/PER
                 (UTC)          (F)     (DEG/KT/KT) (MB)    (MI)  (FT/S)
NY HARB ENTRANCE 1000            35 42  310/ 23/ 29 1019.1
4S FIRE IS       0900               43                N/A           5/10
23SW MTP         1000            35 42  320/ 29/ 35 1015.8          9/10
HUDSON CANYON    0900            37 45  340/ 25/ 31 1015.2         10/ 7
EXECUTION ROCKS  1000            34 42  330/ 19/ 33   N/A
WESTERN LI SOUND 1000            34     310/ 17/ 23   N/A           1/ 2
CENTRAL LI SOUND 0900            35 41  310/ 23/ 29   N/A           3/ 4
EASTERN LI SOUND NOT AVBL
ROBBINS REEF     1000            32     320/ 19/ 29   N/A
$$


>>>>>>>>>>>>>>>>>>>>>>>>>>>> KEY <<<<<<<<<<<<<<<<<<<<<<<<<<<
>                                                          <
>     SKY/WX - SKY CONDITION/PRESENT WEATHER               <
>     TMP    - TEMPERATURE IN FAHRENHEIT                   <
>     DP     - DEWPOINT IN FAHRENHEIT                      <
>     RH     - RELATIVE HUMIDITY IN PERCENT                <
>     WIND   - DIRECTION AND SPEED IN MPH                  <
>     PRES   - MEAN SEA LEVEL PRESSURE IN INCHES OF HG     <
>     WCI    - WIND CHILL INDEX                            <
>     VSB    - VISIBILITY IN MILES                         <
>     HX     - HEAT INDEX                                  <
>     TC     - TEMPERATURE IN CELSIUS                      <
>     VRB    - VARIABLE WIND DIRECTION                     <
>                                                          <
>>>>>>>>>>>>>>>>>>>>>>>>>>>> KEY <<<<<<<<<<<<<<<<<<<<<<<<<<<





USA.gov is the U.S. government's official web portal to all federal, state and local government web resources and services.